Date String (YYYY-MM-DD hh:mm:ss) UTC,Instrument flags,absolute air pressure of the measurement (hPa),sample flow rate (lpm),inlet stack bypass flow (lpm),air temperature of the measurement (°C),ambient temperature measured by the external sensor (°C),aerosol sample conditioner tube jacket temperature (°C),OPC LED temperature (°C),internal box temperature (°C),relative humidity of the measurement (%),span deviation,mass concentration of particles derived from Lorenz-Mie calculation of OPC scattering (μg/m³),mass concentration of particles derived from Lorenz-Mie calculation of OPC scattering (μg/m³),mass concentration of particles derived from Lorenz-Mie calculation of OPC scattering (μg/m³)
DateTimeUTC,F1_M11,P_M11,Q1_M11,Q2_M11,T1_M11,T2_M11,T3_M11,T4_M11,T5_M11,U1_M11,ZSPAN_M11,X0_M11,X2_M11,X1_M11
2023-08-20 13:00:00,SystemResetWarning,0837.5,5.02,000.00,030.3,025.0,000.0,038.4,030.3,35.3,0002.2,0015.49,0011.03,0010.03
2023-08-20 13:01:00,SystemResetWarning,0837.5,5.00,000.00,030.6,025.4,000.0,038.4,030.5,34.8,0002.3,0015.74,0011.07,0010.07
2023-08-20 13:02:00,SystemResetWarning,0837.6,4.98,000.00,030.7,025.8,000.0,038.4,030.6,34.4,0002.2,0016.19,0011.12,0010.12
2023-08-20 13:03:00,SystemResetWarning,0837.6,5.01,000.00,030.9,026.1,000.0,038.4,030.6,34.2,0002.2,0016.29,0011.12,0010.14
2023-08-20 13:04:00,SystemResetWarning,0837.6,5.01,000.00,030.9,026.4,000.0,038.5,030.7,34.2,0001.9,0016.29,0011.13,0010.17
2023-08-20 13:05:00,SystemResetWarning,0837.6,5.00,000.00,030.9,026.7,000.0,038.5,030.7,34.2,0001.5,0016.42,0011.12,0010.21
2023-08-20 13:06:00,SystemResetWarning,0837.6,5.00,000.00,030.9,026.8,000.0,038.6,030.7,34.2,0001.3,0017.73,0011.12,0010.25
2023-08-20 13:07:00,SystemResetWarning,0837.6,5.00,000.00,030.9,027.0,000.0,038.7,030.7,34.1,0001.6,0018.29,0011.19,0010.29
2023-08-20 13:08:00,SystemResetWarning,0837.6,5.00,000.00,030.9,027.2,000.0,038.7,030.8,34.0,0001.9,0017.85,0011.26,0010.35
2023-08-20 13:09:00,SystemResetWarning,0837.6,5.00,000.00,030.9,027.3,000.0,038.8,030.8,34.0,0001.7,0018.41,0011.32,0010.39
2023-08-20 13:10:00,SystemResetWarning,0837.6,4.99,000.00,030.9,027.4,000.0,038.8,030.8,34.2,0001.6,0018.74,0011.35,0010.42
2023-08-20 13:11:00,SystemResetWarning,0837.6,4.99,000.00,030.9,027.5,000.0,038.8,030.9,34.3,0001.8,0018.57,0011.33,0010.42
2023-08-20 13:12:00,SystemResetWarning,0837.5,5.00,000.00,030.8,027.6,000.0,038.9,030.9,34.3,0001.6,0018.37,0011.30,0010.43
2023-08-20 13:13:00,SystemResetWarning,0837.5,5.01,000.00,030.8,027.6,000.0,038.9,031.0,34.2,0001.3,0017.90,0011.28,0010.44
2023-08-20 13:14:00,SystemResetWarning,0837.6,5.00,000.00,030.8,027.7,000.0,038.9,031.0,34.2,0001.1,0018.05,0011.29,0010.44
2023-08-20 13:15:00,SystemResetWarning,0837.5,4.99,000.00,030.8,027.7,000.0,038.9,031.0,34.4,0001.1,0019.60,0011.33,0010.44
2023-08-20 13:16:00,SystemResetWarning,0837.5,4.99,000.00,030.8,027.3,000.0,038.9,031.0,34.3,0001.4,0019.74,0011.31,0010.44
2023-08-20 13:17:00,SystemResetWarning,0837.5,5.01,000.00,030.7,025.6,000.0,038.7,030.7,34.4,0001.2,0018.57,0011.33,0010.46
2023-08-20 13:18:00,SystemResetWarning,0837.5,5.00,000.00,030.6,024.5,000.0,038.6,030.5,34.4,0001.0,0017.96,0011.35,0010.48
2023-08-20 13:19:00,SystemResetWarning,0837.5,5.00,000.00,030.5,024.4,000.0,038.5,030.3,34.6,0000.8,0017.85,0011.31,0010.47
2023-08-20 13:20:00,SystemResetWarning,0837.4,5.00,000.00,030.3,024.8,000.0,038.6,030.2,35.1,0000.8,0017.65,0011.28,0010.46
2023-08-20 13:21:00,SystemResetWarning,0837.4,5.01,000.00,030.4,025.2,000.0,038.6,030.4,35.3,0000.8,0017.56,0011.28,0010.46
2023-08-20 13:22:00,SystemResetWarning,0837.5,5.01,000.00,030.6,025.6,000.0,038.5,030.6,34.8,0000.6,0018.11,0011.31,0010.48
2023-08-20 13:23:00,SystemResetWarning,0837.6,4.98,000.00,030.8,025.9,000.0,038.5,030.7,34.2,0000.5,0018.49,0011.38,0010.50
2023-08-20 13:24:00,SystemResetWarning,0837.5,4.99,000.00,030.9,026.3,000.0,038.6,030.7,34.0,0001.1,0018.95,0011.41,0010.49
2023-08-20 13:25:00,SystemResetWarning,0837.6,5.00,000.00,031.0,026.5,000.0,038.6,030.8,34.3,0001.2,0019.01,0011.49,0010.49
2023-08-20 13:26:00,SystemResetWarning,0837.5,5.01,000.00,031.0,026.8,000.0,038.7,030.8,34.2,0001.3,0018.12,0011.55,0010.52
2023-08-20 13:27:00,SystemResetWarning,0837.6,5.01,000.00,031.0,027.0,000.0,038.7,030.8,34.4,0001.5,0017.45,0011.57,0010.53
2023-08-20 13:28:00,SystemResetWarning,0837.6,4.99,000.00,031.0,027.1,000.0,038.8,030.9,34.5,0001.4,0017.50,0011.58,0010.54
2023-08-20 13:29:00,SystemResetWarning,0837.6,4.99,000.00,031.0,027.3,000.0,038.8,030.9,34.3,0001.5,0017.66,0011.54,0010.53
2023-08-20 13:30:00,SystemResetWarning,0837.6,5.00,000.00,031.0,027.4,000.0,038.9,030.9,34.5,0001.4,0017.65,0011.54,0010.52
2023-08-20 13:31:00,SystemResetWarning,0837.6,5.01,000.00,031.0,027.5,000.0,038.9,031.0,34.6,0001.4,0017.83,0011.52,0010.51
2023-08-20 13:32:00,SystemResetWarning,0837.6,4.99,000.00,030.9,027.6,000.0,038.9,031.0,34.7,0001.7,0017.75,0011.55,0010.50
2023-08-20 13:33:00,SystemResetWarning,0837.6,5.00,000.00,030.9,027.6,000.0,039.0,031.0,34.8,0002.0,0017.32,0011.56,0010.49
2023-08-20 13:34:00,SystemResetWarning,0837.6,4.99,000.00,030.9,026.6,000.0,038.9,031.0,34.9,0002.3,0016.92,0011.55,0010.49
2023-08-20 13:35:00,SystemResetWarning,0837.5,5.01,000.00,030.9,025.0,000.0,038.7,030.7,35.1,0002.2,0016.55,0011.52,0010.50
2023-08-20 13:36:00,SystemResetWarning,0837.6,5.01,000.00,031.0,024.5,000.0,038.7,030.6,35.4,0002.4,0016.46,0011.48,0010.49
2023-08-20 13:37:00,SystemResetWarning,0837.6,4.98,000.00,031.1,024.7,000.0,038.7,030.6,35.1,0002.5,0016.31,0011.41,0010.47
2023-08-20 13:38:00,SystemResetWarning,0837.6,5.01,000.00,031.3,025.0,000.0,038.7,030.7,34.7,0002.4,0016.21,0011.39,0010.45
2023-08-20 13:39:00,SystemResetWarning,0837.6,4.99,000.00,031.4,025.5,000.0,038.7,030.8,34.6,0002.4,0016.21,0011.41,0010.42
2023-08-20 13:40:00,SystemResetWarning,0837.6,5.00,000.00,031.5,025.9,000.0,038.8,030.8,34.4,0002.2,0016.30,0011.43,0010.43
2023-08-20 13:41:00,SystemResetWarning,0837.6,4.99,000.00,031.5,026.2,000.0,038.9,030.8,34.7,0002.2,0016.24,0011.44,0010.44
2023-08-20 13:42:00,SystemResetWarning,0837.6,4.97,000.00,031.5,026.5,000.0,039.0,030.9,35.0,0002.2,0016.18,0011.50,0010.47
2023-08-20 13:43:00,SystemResetWarning,0837.7,5.04,000.00,031.6,026.8,000.0,039.0,031.0,34.8,0001.8,0015.85,0011.49,0010.47
2023-08-20 13:44:00,SystemResetWarning,0837.7,4.96,000.00,031.6,027.0,000.0,039.1,031.0,34.6,0001.3,0015.89,0011.49,0010.47
2023-08-20 13:45:00,SystemResetWarning,0837.6,5.02,000.00,031.7,027.2,000.0,039.2,031.1,34.4,0001.1,0016.05,0011.46,0010.46
2023-08-20 13:46:00,SystemResetWarning,0837.7,5.00,000.00,031.7,027.3,000.0,039.2,031.1,34.4,0001.0,0016.25,0011.47,0010.47
2023-08-20 13:47:00,SystemResetWarning,0837.7,4.99,000.00,031.7,027.4,000.0,039.3,031.2,34.4,0000.7,0016.66,0011.50,0010.49
2023-08-20 13:48:00,SystemResetWarning,0837.7,4.99,000.00,031.7,027.6,000.0,039.3,031.2,34.5,0000.5,0016.77,0011.48,0010.48
2023-08-20 13:49:00,SystemResetWarning,0837.7,5.00,000.00,031.7,027.3,000.0,039.3,031.2,34.6,0000.5,0016.79,0011.48,0010.48
2023-08-20 13:50:00,SystemResetWarning,0837.7,5.00,000.00,031.7,025.8,000.0,039.2,031.0,34.6,0000.8,0016.73,0011.49,0010.48
2023-08-20 13:51:00,SystemResetWarning,0837.7,5.00,000.00,031.6,024.8,000.0,039.1,030.8,34.7,0001.2,0016.29,0011.47,0010.44
2023-08-20 13:52:00,SystemResetWarning,0837.6,4.99,000.00,031.5,024.7,000.0,039.1,030.7,35.0,0001.5,0016.31,0011.46,0010.40
2023-08-20 13:53:00,SystemResetWarning,0837.6,5.03,000.00,031.3,025.0,000.0,039.1,030.6,35.5,0001.6,0016.76,0011.38,0010.36
2023-08-20 13:54:00,SystemResetWarning,0837.7,5.00,000.00,031.4,025.4,000.0,039.2,030.8,35.4,0002.1,0016.70,0011.28,0010.31
2023-08-20 13:55:00,SystemResetWarning,0837.7,5.01,000.00,031.6,025.8,000.0,039.2,030.9,34.8,0002.2,0016.81,0011.23,0010.26
2023-08-20 13:56:00,SystemResetWarning,0837.7,4.98,000.00,031.8,026.1,000.0,039.2,031.0,34.2,0002.2,0017.23,0011.23,0010.24
2023-08-20 13:57:00,SystemResetWarning,0837.7,5.00,000.00,031.9,026.5,000.0,039.2,031.1,34.2,0002.1,0017.18,0011.23,0010.23
2023-08-20 13:58:00,SystemResetWarning,0837.7,5.01,000.00,031.9,026.7,000.0,039.3,031.1,34.1,0002.0,0016.60,0011.17,0010.20
2023-08-20 13:59:00,SystemResetWarning,0837.7,5.00,000.00,031.9,027.0,000.0,039.4,031.1,34.3,0002.0,0016.60,0011.20,0010.21
